Regional Weather Roundup
Issued by NWS

Home | Current Version | Previous Version | Text Only | Print | Product List | Glossary Off
Versions: 1 2 3 4 5 6 7 8 9 10 11 12 13 14 15 16 17 18 19 20 21 22 23 24 25 26 27 28 29 30 31 32 33 34 35 36 37 38 39 40 41 42 43 44 45 46 47 48 49 50

000
ASUS43 KIND 251709
RWRIN

WEATHER ROUNDUP FOR INDIANA
NATIONAL WEATHER SERVICE INDIANAPOLIS IN
100 PM EDT MON MAY 25 2015

NOTE: "FAIR" INDICATES FEW OR NO CLOUDS BELOW 12,000 FEET WITH NO
SIGNIFICANT WEATHER AND/OR OBSTRUCTIONS TO VISIBILITY.

* - STATION DOES NOT REPORT WEATHER SUCH AS PRECIPITATION OR FOG.

+ - STATION NOT QUALITY CONTROLLED BY THE NATIONAL WEATHER SERVICE.
    USE DATA WITH CAUTION...ESPECIALLY DEWPOINT AND RELATIVE
    HUMIDITY OBSERVATIONS.

INZ001>003-010>013-019-020-251800-
NORTHWEST INDIANA

CITY           SKY/WX    TMP DP  RH WIND       PRES   REMARKS
GARY /AIRPORT/ PTSUNNY   75  64  69 SW23G38   29.90S
KNOX *+        CLOUDY    73  61  64 SW18G30   29.93S
LA PORTE +     LGT RAIN  76  64  65 SW22G36   29.93R
MICHIGAN CITY+ PTSUNNY   75  61  60 SW12G18   29.91S
MONTICELLO +   PTSUNNY   76  64  66 SW25G35   29.97S
RENSSELAER +   CLOUDY    73  68  83 SW20      29.96R
VALPARAISO     PTSUNNY   76  59  55 SW28G43   29.94R

$$

LMZ046-743>745-251800-
SOUTHERN LAKE MICHIGAN

STATION/POSITION TIME  TEMP    WIND        PRES    WAVE
                       AIR SEA DIR/SP/G            HT
                 (UTC) (F)     (DEG/KT/KT) (MB)    (FT)
BURNS HARBOR     1700   74     230/ 20/ 27 1012.9S
MICHIGAN CITY    1700   73     200/ 19/ 25   N/A
5NW MICH CITY    1700   61 52  250/ 10/ 14   N/A     3

$$

INZ004-005-014>016-021>024-251800-
NORTH CENTRAL INDIANA

CITY           SKY/WX    TMP DP  RH WIND       PRES   REMARKS
ELKHART        PTSUNNY   77  63  61 SW21G35   29.94F
GOSHEN         PTSUNNY   76  64  66 S30G40    29.96S
LOGANSPORT +   PTSUNNY   77  61  57 S31       30.01F
PERU/GRISSOM   CLOUDY    77  65  67 SW23G31   30.00F
ROCHESTER +    MOSUNNY   77  64  65 S22G32    29.98F
SOUTH BEND     PTSUNNY   79  63  57 SW25G38   29.92F
WARSAW +       CLOUDY    73  64  73 SW12G25   29.98F

$$

INZ006>009-017-018-025>027-251800-
NORTHEAST INDIANA

CITY           SKY/WX    TMP DP  RH WIND       PRES   REMARKS
ANGOLA *+      CLOUDY    72  66  83 SW17      29.99F
AUBURN +       PTSUNNY   75  61  60 SW17G24   30.01F
FORT WAYNE     CLOUDY    74  64  71 S25G35    30.03R
HUNTINGTON +   CLOUDY    73  64  72 SW14G21   30.02S

$$

INZ028-029-035-036-043>045-051>053-251800-
WEST CENTRAL INDIANA

CITY           SKY/WX    TMP DP  RH WIND       PRES   REMARKS
CRAWFORDSVL +  CLOUDY    73  59  61 S23G29    30.04S
GREENCASTLE +  CLOUDY    72  63  73 S9G17     30.07F
LAFAYETTE      CLOUDY    76  62  62 SW18G29   29.99S
TERRE HAUTE    PTSUNNY   75  67  76 S16G23    30.06S

$$

INZ030>032-037>040-046>048-054>057-064-065-251800-
CENTRAL INDIANA

CITY           SKY/WX    TMP DP  RH WIND       PRES   REMARKS
CP ATTERBURY + CLOUDY    70  63  78 S10G18    30.11S
COLUMBUS       PTSUNNY   72  64  78 SW16G28   30.12
FRANKFORT +    PTSUNNY   78  65  63 S22G32    30.04F
GREENWOOD *+   CLOUDY    72  63  73 S16G22    30.10R
INDIANAPOLIS   CLOUDY    71  66  84 SW15G22   30.06S
-EAGLE CREEK   LGT RAIN  70  66  87 S12G20    30.07R
KOKOMO *+      CLOUDY    77  64  65 SW22G38   30.03F
MARION +       CLOUDY    73  61  67 SW26G35   30.06R
MT COMFORT *+  CLOUDY    70  63  78 SW14      30.09S
SHELBYVILLE    CLOUDY    73  65  75 S22       30.09S
ZIONSVILLE +   CLOUDY    74  64  71 SW18G24   30.07F

$$

INZ033-034-041-042-049-050-058-059-251800-
EAST CENTRAL INDIANA

CITY           SKY/WX    TMP DP  RH WIND       PRES   REMARKS
MUNCIE         CLOUDY    72  64  76 SW12G28   30.07S

$$

INZ060-061-067>069-081>083-085>088-251800-
SOUTHWEST INDIANA

CITY           SKY/WX    TMP DP  RH WIND       PRES   REMARKS
EVANSVILLE     PTSUNNY   76  66  71 S13G23    30.11S
HUNTINGBURG *+ CLOUDY    73  64  73 S13G20    30.13S
WASHINGTON +   CLOUDY    73  65  75 SW9       30.10R

$$

INZ062-063-066-070>080-084-089>092-251800-
SOUTH CENTRAL AND SOUTHEAST INDIANA

CITY           SKY/WX    TMP DP  RH WIND       PRES   REMARKS
BLOOMINGTON    LGT RAIN  71  64  78 SW13G22   30.10S
MADISON *+     CLOUDY    68  63  83 S9G21     30.18R
SEYMOUR +      CLOUDY    73  64  73 S18       30.13R

$$




USA.gov is the U.S. government's official web portal to all federal, state and local government web resources and services.